| time (UTC) | temp F | wind direction | speed knots | gust knots | rain 1hr in | rain 24hr in | rain mn in | humidity % | barometer mb |
| 20260504021504 | 51 | 206 | 0.9 | 2.6 | 0.00 | 0.02 | 0.00 | 45 | 1021.1 |
| 20260504021003 | 50 | 0 | 0.0 | 2.6 | 0.00 | 0.02 | 0.00 | 45 | 1021.1 |
| 20260504020503 | 50 | 222 | 0.9 | 2.6 | 0.00 | 0.02 | 0.00 | 45 | 1021.0 |
| 20260504020003 | 50 | 0 | 0.0 | 3.5 | 0.00 | 0.02 | 0.00 | 45 | 1020.9 |
| 20260504015503 | 51 | 215 | 0.9 | 3.5 | 0.00 | 0.02 | 0.00 | 45 | 1020.9 |
| 20260504015004 | 51 | 225 | 0.9 | 2.6 | 0.00 | 0.02 | 0.00 | 45 | 1021.0 |
| 20260504014503 | 51 | 0 | 0.0 | 2.6 | 0.00 | 0.02 | 0.00 | 45 | 1021.0 |
| 20260504014003 | 51 | 225 | 0.9 | 2.6 | 0.00 | 0.02 | 0.00 | 45 | 1021.0 |
| 20260504013503 | 51 | 223 | 0.9 | 2.6 | 0.00 | 0.02 | 0.00 | 45 | 1020.7 |
| 20260504013003 | 51 | 232 | 0.9 | 4.3 | 0.00 | 0.02 | 0.00 | 44 | 1020.9 |
| 20260504012503 | 51 | 0 | 0.0 | 4.3 | 0.00 | 0.02 | 0.00 | 43 | 1020.7 |
| 20260504012004 | 51 | 209 | 0.9 | 2.6 | 0.00 | 0.02 | 0.00 | 44 | 1020.7 |
| 20260504011504 | 51 | 0 | 0.0 | 2.6 | 0.00 | 0.02 | 0.00 | 44 | 1020.8 |
| 20260504011003 | 51 | 225 | 0.9 | 1.7 | 0.00 | 0.02 | 0.00 | 44 | 1020.6 |
| 20260504010503 | 51 | 0 | 0.0 | 2.6 | 0.00 | 0.02 | 0.00 | 45 | 1020.6 |
| 20260504010003 | 51 | 0 | 0.0 | 3.5 | 0.00 | 0.02 | 0.00 | 45 | 1020.4 |
| 20260504005504 | 51 | 0 | 0.0 | 3.5 | 0.00 | 0.02 | 0.00 | 44 | 1020.4 |
| 20260504005004 | 51 | 22 | 0.9 | 3.5 | 0.00 | 0.02 | 0.00 | 44 | 1020.4 |
| 20260504004503 | 51 | 0 | 0.0 | 2.6 | 0.00 | 0.02 | 0.00 | 44 | 1020.3 |
| 20260504004003 | 51 | 0 | 0.0 | 2.6 | 0.00 | 0.02 | 0.00 | 44 | 1020.3 |
| 20260504003504 | 51 | 36 | 0.9 | 3.5 | 0.00 | 0.02 | 0.00 | 44 | 1020.3 |
| 20260504003004 | 52 | 29 | 1.7 | 3.5 | 0.00 | 0.02 | 0.00 | 44 | 1020.5 |
| 20260504002503 | 52 | 55 | 1.7 | 3.5 | 0.00 | 0.02 | 0.00 | 44 | 1020.4 |
| 20260504002004 | 52 | 0 | 0.0 | 2.6 | 0.00 | 0.02 | 0.00 | 43 | 1020.5 |
| 20260504001503 | 52 | 78 | 0.9 | 3.5 | 0.00 | 0.02 | 0.00 | 43 | 1020.5 |
| 20260504001003 | 52 | 0 | 0.0 | 3.5 | 0.00 | 0.02 | 0.00 | 43 | 1020.5 |
| 20260504000503 | 52 | 0 | 0.0 | 3.5 | 0.00 | 0.02 | 0.00 | 43 | 1020.5 |
| 20260504000004 | 52 | 182 | 1.7 | 3.5 | 0.00 | 0.02 | 0.00 | 44 | 1020.5 |
| 20260503235504 | 52 | 0 | 0.0 | 3.5 | 0.00 | 0.02 | 0.00 | 43 | 1020.4 |
| 20260503235003 | 52 | 0 | 0.0 | 3.5 | 0.00 | 0.02 | 0.00 | 43 | 1020.4 |
| 20260503234504 | 52 | 0 | 0.0 | 3.5 | 0.00 | 0.02 | 0.00 | 43 | 1020.4 |
| 20260503234003 | 52 | 348 | 0.9 | 3.5 | 0.00 | 0.02 | 0.00 | 43 | 1020.3 |
| 20260503233503 | 53 | 0 | 0.0 | 3.5 | 0.00 | 0.02 | 0.00 | 44 | 1020.4 |
| 20260503233003 | 53 | 0 | 0.0 | 3.5 | 0.00 | 0.02 | 0.00 | 44 | 1020.5 |
| 20260503232504 | 53 | 0 | 0.0 | 3.5 | 0.00 | 0.02 | 0.00 | 44 | 1020.6 |
| 20260503232004 | 53 | 0 | 0.0 | 3.5 | 0.00 | 0.02 | 0.00 | 44 | 1020.6 |
| 20260503231503 | 53 | 0 | 0.0 | 4.3 | 0.00 | 0.02 | 0.00 | 44 | 1020.6 |
| 20260503231003 | 53 | 0 | 0.0 | 4.3 | 0.00 | 0.02 | 0.00 | 44 | 1020.6 |
| 20260503230503 | 53 | 2 | 0.9 | 4.3 | 0.00 | 0.02 | 0.00 | 44 | 1020.7 |
| 20260503230004 | 53 | 317 | 0.9 | 2.6 | 0.00 | 0.02 | 0.00 | 43 | 1020.6 |
| 20260503225504 | 53 | 235 | 0.9 | 3.5 | 0.00 | 0.02 | 0.00 | 43 | 1020.6 |
| 20260503225003 | 53 | 225 | 0.9 | 3.5 | 0.00 | 0.02 | 0.00 | 42 | 1020.6 |
| 20260503224504 | 54 | 225 | 0.9 | 2.6 | 0.00 | 0.02 | 0.00 | 41 | 1020.6 |
| 20260503224003 | 54 | 0 | 0.0 | 2.6 | 0.00 | 0.02 | 0.00 | 41 | 1020.6 |
| 20260503223503 | 54 | 0 | 0.0 | 4.3 | 0.00 | 0.02 | 0.00 | 40 | 1020.5 |
| 20260503223003 | 54 | 107 | 0.9 | 4.3 | 0.00 | 0.02 | 0.00 | 39 | 1020.6 |
| 20260503222503 | 55 | 214 | 1.7 | 4.3 | 0.00 | 0.02 | 0.00 | 38 | 1020.6 |
| 20260503222004 | 55 | 225 | 0.9 | 2.6 | 0.00 | 0.02 | 0.00 | 38 | 1020.6 |
| 20260503221503 | 55 | 0 | 0.0 | 2.6 | 0.00 | 0.02 | 0.00 | 36 | 1020.5 |
| 20260503221003 | 56 | 201 | 0.9 | 2.6 | 0.00 | 0.02 | 0.00 | 34 | 1020.5 |
| 20260503220504 | 56 | 191 | 0.9 | 2.6 | 0.00 | 0.02 | 0.00 | 32 | 1020.5 |
| 20260503220003 | 56 | 181 | 0.9 | 1.7 | 0.00 | 0.02 | 0.00 | 30 | 1020.5 |
| 20260503215504 | 56 | 0 | 0.0 | 1.7 | 0.00 | 0.02 | 0.00 | 27 | 1020.5 |
| 20260503215003 | 57 | 0 | 0.0 | 1.7 | 0.00 | 0.02 | 0.00 | 27 | 1020.4 |
| 20260503214503 | 57 | 0 | 0.0 | 1.7 | 0.00 | 0.02 | 0.00 | 26 | 1020.4 |
| 20260503214005 | 57 | 0 | 0.0 | 1.7 | 0.00 | 0.02 | 0.00 | 23 | 1020.5 |
| 20260503213503 | 58 | 0 | 0.0 | 1.7 | 0.00 | 0.02 | 0.00 | 23 | 1020.3 |
| 20260503213004 | 58 | 0 | 0.0 | 1.7 | 0.00 | 0.02 | 0.00 | 22 | 1020.4 |
| 20260503212503 | 58 | 0 | 0.0 | 1.7 | 0.00 | 0.02 | 0.00 | 22 | 1020.3 |
| 20260503212004 | 58 | 0 | 0.0 | 1.7 | 0.00 | 0.02 | 0.00 | 22 | 1020.3 |
| 20260503211503 | 58 | 0 | 0.0 | 1.7 | 0.00 | 0.02 | 0.00 | 22 | 1020.3 |
| 20260503211004 | 58 | 0 | 0.0 | 1.7 | 0.00 | 0.02 | 0.00 | 21 | 1020.2 |
| 20260503210503 | 58 | 0 | 0.0 | 3.5 | 0.00 | 0.02 | 0.00 | 21 | 1020.3 |
| 20260503210004 | 59 | 0 | 0.0 | 5.2 | 0.00 | 0.02 | 0.00 | 21 | 1020.3 |
| 20260503205503 | 58 | 123 | 1.7 | 5.2 | 0.00 | 0.02 | 0.02 | 21 | 1020.3 |
| 20260503205004 | 58 | 103 | 1.7 | 4.3 | 0.00 | 0.02 | 0.02 | 21 | 1020.2 |
| 20260503204504 | 58 | 106 | 0.9 | 6.1 | 0.00 | 0.02 | 0.02 | 21 | 1020.3 |
| 20260503204003 | 58 | 139 | 1.7 | 6.1 | 0.00 | 0.02 | 0.02 | 21 | 1020.3 |
| 20260503203503 | 58 | 0 | 0.0 | 5.2 | 0.00 | 0.02 | 0.02 | 22 | 1020.3 |
| 20260503203004 | 58 | 0 | 0.0 | 4.3 | 0.00 | 0.02 | 0.02 | 22 | 1020.3 |
| 20260503202504 | 58 | 64 | 1.7 | 3.5 | 0.00 | 0.02 | 0.02 | 22 | 1020.3 |
| 20260503202003 | 58 | 79 | 0.9 | 3.5 | 0.00 | 0.02 | 0.02 | 22 | 1020.3 |
| 20260503201503 | 58 | 107 | 0.9 | 3.5 | 0.00 | 0.02 | 0.02 | 23 | 1020.3 |
| 20260503201003 | 58 | 0 | 0.0 | 3.5 | 0.00 | 0.02 | 0.02 | 24 | 1020.2 |
| 20260503200503 | 58 | 43 | 0.9 | 3.5 | 0.00 | 0.02 | 0.02 | 24 | 1020.2 |
| 20260503200003 | 58 | 0 | 0.0 | 3.5 | 0.00 | 0.02 | 0.02 | 23 | 1020.2 |
| 20260503195503 | 58 | 102 | 0.9 | 3.5 | 0.00 | 0.02 | 0.02 | 23 | 1020.2 |
| 20260503195003 | 58 | 0 | 0.0 | 5.2 | 0.00 | 0.02 | 0.02 | 22 | 1020.2 |
| 20260503194504 | 59 | 0 | 0.0 | 5.2 | 0.00 | 0.02 | 0.02 | 21 | 1020.3 |
| 20260503194003 | 59 | 127 | 0.9 | 4.3 | 0.00 | 0.02 | 0.02 | 20 | 1020.2 |
| 20260503193504 | 60 | 143 | 0.9 | 3.5 | 0.00 | 0.02 | 0.02 | 19 | 1020.2 |
| 20260503193004 | 60 | 160 | 0.9 | 3.5 | 0.00 | 0.02 | 0.02 | 19 | 1020.2 |
| 20260503192504 | 60 | 42 | 0.9 | 3.5 | 0.00 | 0.02 | 0.02 | 18 | 1020.1 |
| 20260503192003 | 60 | 0 | 0.0 | 4.3 | 0.00 | 0.02 | 0.02 | 18 | 1020.1 |
| 20260503191503 | 61 | 134 | 0.9 | 4.3 | 0.00 | 0.02 | 0.02 | 17 | 1020.1 |
| 20260503191003 | 60 | 161 | 1.7 | 3.5 | 0.00 | 0.02 | 0.02 | 17 | 1020.1 |
| 20260503190504 | 60 | 214 | 2.6 | 3.5 | 0.00 | 0.02 | 0.02 | 18 | 1020.1 |
| 20260503190004 | 60 | 0 | 0.0 | 2.6 | 0.00 | 0.02 | 0.02 | 17 | 1020.0 |
| 20260503185503 | 61 | 0 | 0.0 | 2.6 | 0.00 | 0.02 | 0.02 | 17 | 1019.9 |
| 20260503185003 | 61 | 0 | 0.0 | 3.5 | 0.00 | 0.02 | 0.02 | 17 | 1019.9 |
| 20260503184504 | 61 | 0 | 0.0 | 4.3 | 0.00 | 0.02 | 0.02 | 17 | 1020.0 |
| 20260503184004 | 61 | 0 | 0.0 | 4.3 | 0.00 | 0.02 | 0.02 | 16 | 1019.9 |
| 20260503183503 | 61 | 80 | 1.7 | 4.3 | 0.00 | 0.02 | 0.02 | 16 | 1019.6 |
| 20260503183003 | 61 | 97 | 1.7 | 4.3 | 0.00 | 0.02 | 0.02 | 16 | 1019.4 |
| 20260503182503 | 61 | 115 | 0.9 | 6.1 | 0.00 | 0.02 | 0.02 | 16 | 1019.3 |
| 20260503182005 | 62 | 101 | 1.7 | 6.1 | 0.00 | 0.02 | 0.02 | 16 | 1019.3 |
| 20260503181505 | 62 | 100 | 1.7 | 7.0 | 0.00 | 0.02 | 0.02 | 16 | 1019.2 |
| 20260503181004 | 62 | 110 | 1.7 | 7.8 | 0.00 | 0.02 | 0.02 | 15 | 1019.2 |
| 20260503180503 | 62 | 118 | 1.7 | 7.8 | 0.00 | 0.02 | 0.02 | 14 | 1019.2 |
| 20260503180004 | 63 | 90 | 1.7 | 5.2 | 0.00 | 0.02 | 0.02 | 15 | 1019.1 |
| 20260503175503 | 63 | 0 | 0.0 | 4.3 | 0.00 | 0.02 | 0.02 | 15 | 1019.2 |
| 20260503175004 | 64 | 94 | 1.7 | 4.3 | 0.00 | 0.02 | 0.02 | 14 | 1019.1 |
| 20260503174504 | 64 | 77 | 1.7 | 4.3 | 0.00 | 0.02 | 0.02 | 13 | 1019.0 |
| 20260503174003 | 64 | 0 | 0.0 | 1.7 | 0.00 | 0.02 | 0.02 | 12 | 1018.9 |
| 20260503173504 | 64 | 0 | 0.0 | 1.7 | 0.00 | 0.02 | 0.02 | 12 | 1018.9 |
| 20260503173004 | 64 | 0 | 0.0 | 2.6 | 0.00 | 0.02 | 0.02 | 12 | 1018.9 |
| 20260503172504 | 65 | 0 | 0.0 | 2.6 | 0.00 | 0.02 | 0.02 | 11 | 1018.9 |
| 20260503172003 | 65 | 0 | 0.0 | 2.6 | 0.00 | 0.02 | 0.02 | 11 | 1018.8 |
| 20260503171504 | 65 | 0 | 0.0 | 1.7 | 0.00 | 0.02 | 0.02 | 11 | 1018.7 |
| 20260503171004 | 65 | 0 | 0.0 | 2.6 | 0.00 | 0.02 | 0.02 | 11 | 1018.7 |
| 20260503170503 | 65 | 0 | 0.0 | 3.5 | 0.00 | 0.02 | 0.02 | 11 | 1018.6 |
| 20260503151003 | 69 | 56 | 0.9 | 7.0 | 0.00 | 0.02 | 0.02 | 10 | 1018.5 |
| 20260503150503 | 70 | 31 | 2.6 | 7.0 | 0.00 | 0.02 | 0.02 | 10 | 1018.6 |
| 20260503131004 | 74 | 196 | 0.9 | 5.2 | 0.00 | 0.02 | 0.02 | 10 | 1019.3 |
| 20260503130503 | 72 | 0 | 0.0 | 6.1 | 0.00 | 0.02 | 0.02 | 10 | 1019.3 |
| 20260503110504 | 65 | 243 | 0.9 | 4.3 | 0.00 | 0.02 | 0.02 | 10 | 1020.0 |
| 20260503090503 | 63 | 118 | 0.9 | 4.3 | 0.00 | 0.02 | 0.02 | 19 | 1020.8 |
| 20260503081504 | 61 | 0 | 0.0 | 6.1 | 0.01 | 0.02 | 0.02 | 32 | 1020.8 |
| 20260503081004 | 60 | 257 | 1.7 | 6.1 | 0.01 | 0.02 | 0.02 | 26 | 1020.9 |
| 20260503080503 | 61 | 200 | 0.9 | 5.2 | 0.01 | 0.02 | 0.02 | 26 | 1020.9 |
| 20260503072503 | 60 | 288 | 0.9 | 3.5 | 0.00 | 0.01 | 0.01 | 45 | 1020.8 |
| 20260503072003 | 59 | 28 | 0.9 | 3.5 | 0.00 | 0.01 | 0.01 | 47 | 1021.0 |
| 20260503071503 | 58 | 232 | 1.7 | 2.6 | 0.00 | 0.01 | 0.01 | 47 | 1021.0 |
| 20260503071004 | 58 | 234 | 0.9 | 2.6 | 0.00 | 0.01 | 0.01 | 50 | 1020.8 |
| 20260503070503 | 58 | 246 | 0.9 | 2.6 | 0.00 | 0.01 | 0.01 | 50 | 1020.8 |
| 20260503055003 | 50 | 241 | 1.7 | 3.5 | 0.01 | 0.01 | 0.01 | 58 | 1020.6 |
| 20260503054504 | 50 | 0 | 0.0 | 3.5 | 0.01 | 0.01 | 0.01 | 58 | 1020.5 |
| 20260503054004 | 50 | 225 | 1.7 | 4.3 | 0.01 | 0.01 | 0.01 | 58 | 1020.5 |
| 20260503053503 | 50 | 0 | 0.0 | 4.3 | 0.01 | 0.01 | 0.01 | 58 | 1020.4 |
| 20260503053003 | 50 | 200 | 1.7 | 4.3 | 0.01 | 0.01 | 0.01 | 57 | 1020.4 |
| 20260503052503 | 50 | 252 | 0.9 | 3.5 | 0.01 | 0.01 | 0.01 | 58 | 1020.6 |
| 20260503052004 | 50 | 0 | 0.0 | 3.5 | 0.01 | 0.01 | 0.01 | 58 | 1020.6 |
| 20260503051504 | 50 | 220 | 1.7 | 13.0 | 0.01 | 0.01 | 0.01 | 57 | 1020.5 |
| 20260503051003 | 51 | 66 | 0.9 | 13.0 | 0.01 | 0.01 | 0.01 | 56 | 1020.3 |
| 20260503050503 | 51 | 87 | 3.5 | 9.6 | 0.00 | 0.00 | 0.00 | 57 | 1020.4 |
| 20260503050005 | 51 | 114 | 3.5 | 7.0 | 0.00 | 0.00 | 0.00 | 59 | 1020.2 |
| 20260503045504 | 51 | 213 | 1.7 | 3.5 | 0.00 | 0.00 | 0.00 | 60 | 1020.1 |
| 20260503045003 | 51 | 220 | 0.9 | 2.6 | 0.00 | 0.00 | 0.00 | 60 | 1019.9 |
| 20260503044503 | 51 | 0 | 0.0 | 1.7 | 0.00 | 0.00 | 0.00 | 60 | 1019.8 |
| 20260503044004 | 51 | 72 | 0.9 | 3.5 | 0.00 | 0.00 | 0.00 | 61 | 1019.9 |
| 20260503043504 | 51 | 56 | 0.9 | 3.5 | 0.00 | 0.00 | 0.00 | 61 | 1019.8 |
| 20260503043003 | 51 | 45 | 0.9 | 3.5 | 0.00 | 0.00 | 0.00 | 62 | 1019.8 |
| 20260503042503 | 51 | 337 | 0.9 | 3.5 | 0.00 | 0.00 | 0.00 | 63 | 1019.6 |
| 20260503042003 | 51 | 0 | 0.0 | 3.5 | 0.00 | 0.00 | 0.00 | 63 | 1019.6 |
| 20260503041504 | 51 | 222 | 0.9 | 3.5 | 0.00 | 0.00 | 0.00 | 63 | 1019.6 |
| 20260503041004 | 51 | 230 | 1.7 | 3.5 | 0.00 | 0.00 | 0.00 | 63 | 1019.6 |
| 20260503040503 | 51 | 0 | 0.0 | 6.1 | 0.00 | 0.00 | 0.00 | 64 | 1019.5 |
| 20260503040003 | 51 | 223 | 1.7 | 6.1 | 0.00 | 0.00 | 0.00 | 65 | 1019.6 |
| 20260503035504 | 50 | 218 | 0.9 | 3.5 | 0.00 | 0.00 | 0.00 | 66 | 1019.6 |
| 20260503035004 | 50 | 222 | 0.9 | 3.5 | 0.00 | 0.00 | 0.00 | 66 | 1019.5 |
| 20260503034503 | 50 | 209 | 1.7 | 3.5 | 0.00 | 0.00 | 0.00 | 66 | 1019.4 |
| 20260503034004 | 50 | 0 | 0.0 | 3.5 | 0.00 | 0.00 | 0.00 | 66 | 1019.3 |
| 20260503033503 | 50 | 245 | 1.7 | 3.5 | 0.00 | 0.00 | 0.00 | 66 | 1019.3 |
| 20260503033004 | 50 | 292 | 1.7 | 2.6 | 0.00 | 0.00 | 0.00 | 66 | 1019.2 |
| 20260503032504 | 50 | 283 | 0.9 | 2.6 | 0.00 | 0.00 | 0.00 | 66 | 1019.2 |
| 20260503032003 | 50 | 0 | 0.0 | 2.6 | 0.00 | 0.00 | 0.00 | 66 | 1019.3 |
| 20260503031503 | 50 | 0 | 0.0 | 1.7 | 0.00 | 0.00 | 0.00 | 66 | 1019.2 |
| 20260503031004 | 50 | 0 | 0.0 | 3.5 | 0.00 | 0.00 | 0.00 | 66 | 1019.1 |
| 20260503030504 | 50 | 0 | 0.0 | 3.5 | 0.00 | 0.00 | 0.00 | 66 | 1019.1 |
| 20260503030004 | 50 | 46 | 1.7 | 3.5 | 0.00 | 0.00 | 0.00 | 66 | 1019.2 |
| 20260503025504 | 50 | 0 | 0.0 | 2.6 | 0.00 | 0.00 | 0.00 | 67 | 1019.2 |
| 20260503025003 | 50 | 0 | 0.0 | 5.2 | 0.00 | 0.00 | 0.00 | 67 | 1019.3 |
| 20260503024503 | 49 | 76 | 0.9 | 6.1 | 0.00 | 0.00 | 0.00 | 67 | 1019.4 |
| 20260503024004 | 49 | 74 | 1.7 | 6.1 | 0.00 | 0.00 | 0.00 | 67 | 1019.5 |
| 20260503023503 | 50 | 58 | 1.7 | 7.0 | 0.00 | 0.00 | 0.00 | 67 | 1019.5 |
| 20260503023004 | 50 | 70 | 1.7 | 7.0 | 0.00 | 0.00 | 0.00 | 67 | 1019.5 |
| 20260503022503 | 50 | 55 | 1.7 | 7.0 | 0.00 | 0.00 | 0.00 | 67 | 1019.4 |
| 20260503022003 | 50 | 34 | 1.7 | 7.0 | 0.00 | 0.00 | 0.00 | 66 | 1019.5 |